Location: West Sayville
(40.7279°N, 73.0976°W)
Time: 05:39:30
(UTC+00:00)

CZ-4 R/B - Pass Details

Date: 29 October 2020
Orbit: 532 x 598 km, 97.7° (Epoch: 29 November)

Event Time Altitude Azimuth Distance (km) Brightness Sun altitude
Rises 23:45:20 0° 178° (S) 2,700 4.8 -22.0°
Reaches altitude 10° 23:47:30 10° 183° (S) 1,803 4.0 -22.5°
Maximum altitude 23:51:17 51° 260° (W) 684 2.1 -23.2°
Drops below altitude 10° 23:55:04 10° 337° (NNW) 1,795 4.2 -23.9°
Sets 23:57:14 0° 343° (NNW) 2,687 5.1 -24.3°
